Weather History for Rochester, NY

Change the Weather History Date:

Thursday, May 22, 2014

  Actual Average Record
Temperature  
Mean Temperature 65 °F 59 °F  
Max Temperature 74 °F 70 °F 92 °F (1911)
Min Temperature 55 °F 48 °F 34 °F (1990)
Degree Days  
Heating Degree Days 0 7  
Month to date heating degree days 159 221  
Since 1 July heating degree days 6954 6524  
Cooling Degree Days 0 1  
Month to date cooling degree days 25 13  
Year to date cooling degree days 26 17  
Growing Degree Days 14 (Base 50)    
Moisture  
Dew Point 56 °F    
Average Humidity 75    
Maximum Humidity 100    
Minimum Humidity 49    
Precipitation  
Precipitation 0.27 in 0.10 in 1.00 in (1882)
Month to date precipitation 3.02 2.02  
Year to date precipitation 12.85 11.61  
Snow  
Snow 0.00 in 0.00 in T in (2006)
Month to date snowfall 0.0 0.4  
Since 1 July snowfall 112.7 99.5  
Snow Depth 0.00 in    
Sea Level Pressure  
Sea Level Pressure 29.82 in    
Wind  
Wind Speed 8 mph (West)    
Max Wind Speed 22 mph    
Max Gust Speed 29 mph    
Visibility 6 miles    
Events Rain , Thunderstorm    
T = Trace of Precipitation, MM = Missing Value Source: NWS Daily Summary

Daily Weather History Graph

Daily Weather History Graph

Search for Another Location

Airport:

Trip Planner

Search our weather history database for the weather conditions in past years. The results will help you decide how hot, cold, wet, or windy it might be!

Date:

Astronomy

May. 22, 2014 Rise Set
Actual Time 5:40 AM EDT 8:34 PM EDT
Civil Twilight 5:07 AM EDT 9:08 PM EDT
Nautical Twilight 4:24 AM EDT 9:51 PM EDT
Astronomical Twilight 3:34 AM EDT 10:41 PM EDT
Moon 2:09 AM EDT (5/22) 2:10 PM EDT (5/22)
Length of Visible Light 16h 01m
Length of Day
14h 54m
Last Quarter, 37% of the Moon is Illuminated
May 22
Last Quarter
May 28
New
Jun 5
First Quarter
Jun 13
Full
Jun 19
Last Quarter

Hourly Weather History & Observations

Time (EDT) Temp. Dew Point Humidity Pressure Visibility Wind Dir Wind Speed Gust Speed Precip Events Conditions
12:54 AM 57.9 °F 55.9 °F 93% 29.82 in 5.0 mi WSW 3.5 mph - N/A   Partly Cloudy
1:54 AM 57.0 °F 55.9 °F 96% 29.81 in 4.0 mi WSW 3.5 mph - N/A   Clear
2:46 AM 57.2 °F 55.4 °F 94% 29.80 in 2.0 mi Calm Calm - N/A   Clear
2:54 AM 57.9 °F 57.0 °F 97% 29.81 in 2.5 mi Calm Calm - N/A   Scattered Clouds
3:25 AM 55.4 °F 55.4 °F 100% 29.80 in 1.0 mi Calm Calm - N/A   Mist
3:54 AM 57.0 °F 55.9 °F 96% 29.80 in 3.0 mi Calm Calm - N/A   Overcast
4:45 AM 57.2 °F 55.4 °F 94% 29.79 in 2.5 mi West 3.5 mph - N/A   Mostly Cloudy
4:54 AM 57.9 °F 55.9 °F 93% 29.80 in 2.5 mi NW 4.6 mph - N/A Thunderstorm Overcast
4:57 AM 57.2 °F 57.2 °F 100% 29.79 in 3.0 mi NW 3.5 mph - N/A Thunderstorm Overcast
5:19 AM 59.0 °F 57.2 °F 94% 29.80 in 2.0 mi Calm Calm - 0.00 in Rain , Thunderstorm Heavy Thunderstorms and Rain
5:45 AM 60.8 °F 57.2 °F 88% 29.79 in 3.0 mi Variable 3.5 mph - 0.25 in Rain , Thunderstorm Thunderstorms and Rain
5:54 AM 60.1 °F 57.9 °F 93% 29.79 in 5.0 mi Calm Calm - 0.26 in Rain , Thunderstorm Thunderstorms and Rain
6:12 AM 60.8 °F 57.2 °F 88% 29.79 in 5.0 mi SSW 6.9 mph - 0.01 in Rain , Thunderstorm Light Thunderstorms and Rain
6:33 AM 59.0 °F 57.2 °F 94% 29.79 in 4.0 mi NW 3.5 mph - 0.01 in   Mostly Cloudy
6:50 AM 59.0 °F 57.2 °F 94% 29.79 in 2.5 mi Calm Calm - 0.01 in   Mostly Cloudy
6:51 AM 59.0 °F 57.9 °F 96% 29.80 in 2.5 mi Calm Calm - 0.01 in   Mostly Cloudy
6:58 AM 59.0 °F 57.2 °F 94% 29.79 in 3.0 mi Calm Calm - N/A   Mostly Cloudy
7:27 AM 60.8 °F 60.8 °F 100% 29.79 in 3.0 mi Calm Calm - N/A   Scattered Clouds
7:54 AM 63.0 °F 59.0 °F 87% 29.81 in 3.0 mi NW 3.5 mph - N/A   Scattered Clouds
8:32 AM 66.2 °F 60.8 °F 83% 29.81 in 7.0 mi West 6.9 mph - N/A   Overcast
8:54 AM 64.9 °F 61.0 °F 87% 29.82 in 7.0 mi SW 6.9 mph - N/A   Mostly Cloudy
9:35 AM 66.2 °F 60.8 °F 83% 29.82 in 8.0 mi WNW 5.8 mph - N/A   Mostly Cloudy
9:54 AM 68.0 °F 61.0 °F 78% 29.82 in 9.0 mi Calm Calm - N/A   Mostly Cloudy
10:54 AM 71.1 °F 59.0 °F 66% 29.81 in 10.0 mi West 8.1 mph - N/A   Mostly Cloudy
11:54 AM 70.0 °F 61.0 °F 73% 29.81 in 9.0 mi NNW 9.2 mph - N/A   Partly Cloudy
12:54 PM 71.1 °F 60.1 °F 68% 29.81 in 10.0 mi NW 12.7 mph - N/A   Mostly Cloudy
1:54 PM 70.0 °F 57.9 °F 65% 29.81 in 10.0 mi WNW 11.5 mph - N/A   Mostly Cloudy
2:54 PM 71.1 °F 57.0 °F 61% 29.82 in 10.0 mi NNW 12.7 mph - N/A   Mostly Cloudy
3:54 PM 73.0 °F 55.9 °F 55% 29.82 in 10.0 mi WNW 9.2 mph 19.6 mph N/A   Scattered Clouds
4:54 PM 73.4 °F 53.6 °F 50% 29.82 in 10.0 mi West 16.1 mph 26.5 mph N/A   Mostly Cloudy
5:54 PM 69.1 °F 55.0 °F 61% 29.84 in 10.0 mi West 18.4 mph 25.3 mph N/A   Scattered Clouds
6:54 PM 66.0 °F 55.0 °F 68% 29.86 in 10.0 mi West 10.4 mph 19.6 mph N/A   Mostly Cloudy
7:54 PM 64.0 °F 52.0 °F 65% 29.88 in 10.0 mi West 10.4 mph 21.9 mph N/A   Scattered Clouds
8:54 PM 60.1 °F 50.0 °F 69% 29.91 in 10.0 mi WSW 12.7 mph - N/A   Scattered Clouds
9:54 PM 57.0 °F 48.9 °F 74% 29.91 in 10.0 mi WSW 12.7 mph - N/A   Mostly Cloudy
10:54 PM 57.0 °F 48.9 °F 74% 29.92 in 10.0 mi WSW 9.2 mph - N/A   Overcast
11:54 PM 55.9 °F 48.9 °F 77% 29.93 in 10.0 mi WSW 8.1 mph - N/A   Mostly Cloudy